Home > Time Zones > World Clock > Weather > Chile > Talca > Past weeks

Flag for Chile Weather past 2 weeks in Talca, Chile

Now
68 °F

Partly sunny.


Feels Like: 68 °F
Forecast: N/A
Wind: 13 mph from Southwest

Location: Concepcion Airport

Current Time: Jan 25, 2015 at 5:39:21 PM

Latest Report: Jan 25, 2015 at 5:00 PM


Visibility: N/A

Pressure: 29.95 "Hg

Humidity: 73%

Dew point: 59 °F

Location of TalcaLocation

Historic Weather in Talca — Graph

°F

Talca temperature yesterday

Maximum temperature yesterday: 72 °F (at 2:00 PM)
Minimum temperature yesterday: 59 °F (at 5:00 AM)
Average temperature yesterday: 65 °F

Past Weeks' High & Low Weather Summary

 TemperatureHumidityPressure
High79 °F (Jan 16, 4:00 PM)100% (Jan 18, 12:00 AM)30.09 "Hg (Jan 18, 12:00 AM)
Low52 °F (Jan 11, 5:00 AM)39% (Jan 11, 2:00 PM)29.86 "Hg (Jan 11, 6:00 PM)
Average63 °F76%29.98 "Hg
* Reported Jan 10 4:00 PM — Jan 25 4:00 PM, Talca, Weather by CustomWeather, © 2014

Note: Actual official high and low records may vary slightly from our data, if they occured in-between our weather recording intervals... More about our weather records

Advertising

Talca weather history for previous 24 hours

 ConditionsComfort  
Time TempWeatherWind HumidityBarometerVisibility
4:00 PM
Jan 25
70 °FScattered clouds.10 mph69%29.95 "HgN/A
3:00 PM70 °FPassing clouds.9 mph69%29.95 "HgN/A
2:00 PM68 °FPartly sunny.3 mph73%29.95 "HgN/A
1:00 PM66 °FOvercast.6 mph78%29.95 "HgN/A
12:00 PM66 °FOvercast.6 mph78%29.95 "HgN/A
11:00 AM66 °FPartly sunny.3 mph78%29.92 "HgN/A
10:00 AM64 °FLow clouds.6 mph83%29.92 "HgN/A
9:00 AM63 °FLow clouds.8 mph88%29.92 "HgN/A
8:00 AM61 °FMore clouds than sun.7 mph94%29.92 "HgN/A
7:00 AM61 °FLow clouds.8 mph94%29.89 "HgN/A
6:00 AM61 °FPassing clouds.3 mph94%29.89 "HgN/A
5:00 AM59 °FClear.2 mph94%29.89 "Hg10 mi
4:00 AM61 °FClear.2 mph94%29.92 "Hg10 mi
3:00 AM63 °FClear.7 mph94%29.92 "Hg10 mi
2:00 AM63 °FClear.8 mph88%29.92 "Hg10 mi
1:00 AM63 °FClear.9 mph88%29.95 "Hg10 mi
12:00 AM63 °FClear.10 mph94%29.95 "Hg10 mi
11:00 PM
Jan 24
64 °FClear.12 mph88%29.95 "Hg10 mi
10:00 PM64 °FClear.7 mph83%29.95 "Hg10 mi
9:00 PM66 °FSunny.14 mph78%29.95 "Hg10 mi
8:00 PM68 °FSunny.17 mph73%29.95 "Hg10 mi
7:00 PM70 °FSunny.18 mph60%29.95 "Hg10 mi
6:00 PM70 °FSunny.16 mph57%29.95 "Hg10 mi
5:00 PM72 °FSunny.13 mph61%29.98 "Hg10 mi
Weather by CustomWeather, © 2014

See weather overviewHow to use our weather pages